Regional Weather Roundup
Issued by NWS

Home | Current Version | Previous Version | Text Only | Print | Product List | Glossary On
Versions: 1 2 3 4 5 6 7 8 9 10 11 12 13 14 15 16 17 18 19 20 21 22 23 24 25 26 27 28 29 30 31 32 33 34 35 36 37 38 39 40 41 42 43 44 45 46 47 48 49 50
000
ASUS43 KLSX 231307
RWRMO
STLRWRMO ALL

WEATHER SUMMARY FOR MISSOURI
NATIONAL WEATHER SERVICE SPRINGFIELD MO
800 AM CDT SUN JUL 23 2017

NOTE: "FAIR" INDICATES FEW OR NO CLOUDS BELOW 12,000 FEET WITH NO
       SIGNIFICANT WEATHER AND/OR OBSTRUCTIONS TO VISIBILITY.
       CURRENT SKY AND/OR WEATHER CONDITIONS ARE NOT AVAILABLE FOR
       CHILLICOTHE AND FARMINGTON.

MOZ001>031-035>038-043-044-053-054-231400-
...NORTHERN AND WESTERN MISSOURI...

CITY           SKY/WX    TMP DP  RH WIND       PRES   REMARKS
KANSAS CTY INT CLOUDY    74  71  91 W6        29.93R
KANSAS C DTWN  CLOUDY    75  72  90 SW3       29.92R
LEE`S SUMMIT   CLOUDY    72  71  97 SW5       29.94R
ST JOSEPH      MOSUNNY   75  73  93 CALM      29.94R
CHILLICOTHE      N/A     75  71  87 CALM      29.92R
KIRKSVILLE     PTSUNNY   76  70  82 W7        29.91S

$$
MOZ066>068-077>081-088>096-101>105-231400-
...SOUTHWEST MISSOURI...

CITY           SKY/WX    TMP DP  RH WIND       PRES   REMARKS
SPRINGFIELD    MOSUNNY   76  68  76 CALM      29.96R
JOPLIN         CLOUDY    77  70  79 SW5       29.99R
BRANSON        PTSUNNY   79  68  69 CALM      29.98S

$$
MOZ032>034-039>042-045>050-055>058-069>072-231400-
...CENTRAL MISSOURI...

CITY           SKY/WX    TMP DP  RH WIND       PRES   REMARKS
COLUMBIA       CLOUDY    72  68  87 SW8       29.91R
JEFFERSON CITY CLOUDY    73  71  93 CALM      29.90R
ROLLA          CLOUDY    73  67  81 NE5       29.92R
SEDALIA        CLOUDY    73  71  93 SW8       29.96R
WHITEMAN AFB   PTSUNNY   72  72 100 SW10      29.94R
OSAGE BEACH    CLOUDY    74  67  78 W6        29.95R

$$
MOZ051-052-059>065-231400-
...EAST CENTRAL MISSOURI...

CITY           SKY/WX    TMP DP  RH WIND       PRES   REMARKS
ST LOUIS INTL  CLOUDY    77  63  61 SW10      29.85R
SPIRIT OF STL  CLOUDY    72  69  90 SW10      29.86R
ST CHARLES     CLOUDY    74  65  73 W10       29.85R

$$
MOZ072>076-082>087-097>100-106>115-231400-
...SOUTH CENTRAL AND SOUTHEAST MISSOURI...

CITY           SKY/WX    TMP DP  RH WIND       PRES   REMARKS
CAPE GIRARDEAU CLOUDY    80  66  62 CALM      29.89S
FARMINGTON     PTSUNNY   76  67  73 S6        29.90S
POPLAR BLUFF   PTSUNNY   81  75  82 CALM      29.89R
WEST PLAINS    PTSUNNY   80  65  59 NE3       29.97R

$$



USA.gov is the U.S. government's official web portal to all federal, state and local government web resources and services.